Location: Stockholm
(59.3293°N, 18.0686°E)
Time: 10:45:43
(UTC+02:00)

ISS - Visible Passes

Search period start: 25 May 2017 00:00
Search period end: 04 June 2017 00:00
Orbit: 402 x 409 km, 51.6° (Epoch: 25 May)

Date Brightness Start Highest point End Pass type
(mag) Time Alt. Az. Time Alt. Az. Time Alt. Az.
25 May -2.6 01:07:58 10° SW 01:10:34 21° S 01:13:09 10° SE visible
25 May -2.0 02:44:31 10° SW 02:46:16 14° SSW 02:48:01 10° S visible
26 May -2.6 00:16:08 10° SW 00:18:43 22° S 00:21:20 10° SE visible
26 May -2.2 01:52:18 10° WSW 01:54:30 17° SSW 01:56:42 10° SSE visible
26 May -2.5 23:24:21 10° SW 23:26:53 20° S 23:29:25 10° ESE visible
27 May -2.4 01:00:15 10° WSW 01:02:41 19° SSW 01:05:07 10° SE visible
28 May -2.5 00:08:16 10° WSW 00:10:51 21° S 00:13:25 10° SE visible
28 May -1.9 01:45:01 10° SW 01:46:31 13° SSW 01:47:25 12° S visible
28 May -2.5 23:16:22 10° SW 23:18:58 22° S 23:21:35 10° SE visible
29 May -2.1 00:52:40 10° WSW 00:54:44 16° SSW 00:56:00 13° S visible
30 May -2.3 00:00:31 10° WSW 00:02:54 18° SSW 00:05:06 11° SSE visible
30 May -2.4 23:08:28 10° WSW 23:11:01 21° S 23:13:33 10° SE visible
31 May -1.7 00:45:31 10° SW 00:46:39 11° SSW 00:47:01 11° SSW visible
31 May -1.9 23:52:56 10° WSW 23:54:50 15° SSW 23:56:23 11° S visible
02 Jun -1.5 23:46:12 10° SW 23:46:40 10° SSW 23:47:09 10° SSW visible
